Location: Dillon
(41.1766°N, 107.0923°W)
Time: 13:44:47
(UTC+00:00)

DIWATA 2B (PO-101) - Pass Details

Date: 05 July 2022
Orbit: 583 x 599 km, 98.0° (Epoch: 19 August)

Event Time Altitude Azimuth Distance (km) Brightness Sun altitude
Exits shadow 10:15:20 15° 259° (W) 1,646 ? -13.4°
Maximum altitude 10:15:51 15° 268° (W) 1,632 ? -13.3°
Drops below altitude 10° 10:18:18 10° 304° (NW) 1,945 ? -13.0°
Sets 10:21:20 0° 328° (NNW) 2,853 ? -12.6°
